This demonstration page uses our WeatherBlox Daily Observations layout. Learn more.

Left ArrowRight Arrow

34.16533, -84.80231

Hourly Observations for September 23, 2017

Temp ( °F °C ) Dew Point ( °F °C ) Humidity (%) Winds ( mph kmh ) Pressure ( in mb ) Visibility ( mi km ) Precip ( " mm )
12:53 am 00:53 Clear 69 20.6 69 20.6 100 100 Calm 30.00 1016 8 13 0.00 0.00
1:53 am 01:53 Clear 67 19.4 67 19.4 100 100 Calm 30.00 1016 7 11 0.00 0.00
2:53 am 02:53 Clear 66 18.9 66 18.9 100 100 Calm 30.00 1016 8 13 0.00 0.00
3:53 am 03:53 Clear 66 18.9 66 18.9 100 100 Calm 29.99 1016 8 13 0.00 0.00
4:38 am 04:38 Mostly Cloudy 67 19.4 67 19.4 100 100 Calm 30.03 1017 7 11 0.00 0.00
4:53 am 04:53 Mostly Cloudy with Mist and Fog 66 18.9 66 18.9 100 100 Calm 29.99 1016 2 3 0.00 0.00
5:00 am 05:00 Mostly Cloudy with Mist and Fog 65 18.3 65 18.3 100 100 SE 6 9 30.03 1017 1 1 0.00 0.00
5:06 am 05:06 Mostly Cloudy with Mist and Fog 66 18.9 66 18.9 100 100 SE 5 7 30.03 1017 2 2 0.00 0.00
5:08 am 05:08 Partly Cloudy with Mist and Fog 65 18.3 65 18.3 100 100 SE 5 7 30.03 1017 3 5 0.00 0.00
5:53 am 05:53 Clear with Mist and Fog 66 18.9 66 18.9 100 100 Calm 30.01 1016 5 8 0.00 0.00
6:53 am 06:53 Clear 65 18.3 65 18.3 100 100 Calm 30.02 1017 7 11 0.00 0.00
7:03 am 07:03 Partly Cloudy with Mist and Fog 65 18.3 65 18.3 100 100 Calm 30.03 1017 5 8 0.00 0.00
7:53 am 07:53 Sunny with Mist and Fog 65 18.3 65 18.3 100 100 Calm 30.03 1017 6 10 0.00 0.00
8:53 am 08:53 Sunny 71 21.7 70 21.1 96 96 Calm 30.04 1017 9 14 0.00 0.00
9:53 am 09:53 Sunny 76 24.4 70 21.1 82 82 Calm 30.05 1018 10 16 0.00 0.00
10:53 am 10:53 Sunny 79 26.1 69 20.6 72 72 VRB 3 6 30.05 1018 10 16 0.00 0.00
11:53 am 11:53 Sunny 83 28.3 69 20.6 63 63 Calm 30.05 1018 10 16 0.00 0.00
12:53 pm 12:53 Sunny 86 30 67 19.4 53 53 VRB 5 7 30.03 1017 10 16 0.00 0.00
1:53 pm 13:53 Sunny 86 30 65 18.3 49 49 ESE 3 6 30.01 1016 10 16 0.00 0.00
2:53 pm 14:53 Mostly Sunny 88 31.1 66 18.9 48 48 NE 3 6 29.99 1016 10 16 0.00 0.00
3:53 pm 15:53 Partly Cloudy with Nearby Thunderstorms 88 31.1 66 18.9 48 48 E 5 7 29.98 1015 10 16 0.00 0.00
4:19 pm 16:19 Partly Cloudy with Thunderstorms 89 31.7 66 18.9 47 47 VRB 5 7 29.97 1015 10 16 0.00 0.00
4:53 pm 16:53 Mostly Cloudy with Nearby Thunderstorms 82 27.8 66 18.9 58 58 N 8 13 29.98 1015 10 16 0.00 0.00
5:13 pm 17:13 Mostly Cloudy 81 27.2 66 18.9 61 61 VRB 5 7 29.97 1015 10 16 0.00 0.00
5:24 pm 17:24 Partly Cloudy with Nearby Thunderstorms 81 27.2 67 19.4 62 62 Calm 29.97 1015 10 16 0.00 0.00
5:39 pm 17:39 Partly Cloudy 82 27.8 67 19.4 60 60 NNE 6 9 30.00 1016 10 16 0.00 0.00
5:46 pm 17:46 Partly Cloudy with Nearby Thunderstorms 82 27.8 68 20 63 63 NNE 6 9 30.00 1016 10 16 0.00 0.00
5:53 pm 17:53 Mostly Cloudy with Nearby Thunderstorms 81 27.2 68 20 65 65 NNE 7 11 29.98 1015 10 16 0.00 0.00
6:01 pm 18:01 Partly Cloudy 80 26.7 67 19.4 64 64 NE 5 7 30.00 1016 10 16 0.00 0.00
6:53 pm 18:53 Sunny 77 25 68 20 74 74 NE 5 7 29.98 1015 10 16 0.00 0.00
7:53 pm 19:53 Clear 70 21.1 69 20.6 97 97 Calm 29.99 1016 10 16 0.00 0.00
8:53 pm 20:53 Clear 69 20.6 68 20 96 96 Calm 30.01 1016 10 16 0.00 0.00
9:53 pm 21:53 Clear 67 19.4 67 19.4 100 100 Calm 30.01 1016 10 16 0.00 0.00
10:53 pm 22:53 Clear 65 18.3 65 18.3 100 100 Calm 30.01 1016 10 16 0.00 0.00
11:53 pm 23:53 Clear 65 18.3 65 18.3 100 100 Calm 30.01 1016 10 16 0.00 0.00

Powered by AerisWeather